Regional Weather Roundup
Issued by NWS Charleston, SC

Current Version | Previous Version | Text Only | Print | Product List | Glossary Off
Versions: 1 2 3 4 5 6 7 8 9 10 11 12 13 14 15 16 17 18 19 20 21 22 23 24 25 26 27 28 29 30 31 32 33 34 35 36 37 38 39 40 41 42 43 44 45 46 47 48 49 50

000
ASUS42 KCHS 231610
RWRCHS
REGIONAL WEATHER ROUNDUP
NATIONAL WEATHER SERVICE CHARLESTON SC
1100 AM EST SUN NOV 23 2014

NOTE: "FAIR" INDICATES FEW OR NO CLOUDS BELOW 12,000 FEET WITH NO
SIGNIFICANT WEATHER AND/OR OBSTRUCTIONS TO VISIBILITY.

NOT ALL STATIONS ARE QUALITY CONTROLLED BY THE NATIONAL
WEATHER SERVICE. USE DATA WITH CAUTION...ESPECIALLY
DEWPOINT OBSERVATIONS.

SCZ027-030-031-034>040-042>050-231700-
...SOUTHEAST SOUTH CAROLINA...

CITY           SKY/WX    TMP DP  RH WIND       PRES   REMARKS
N CHARLESTON   RAIN      63  61  93 E9        30.11R FOG
WATERFRONT PRK   N/A     61 N/A N/A NE15G22     N/A
MOUNT PLEASANT CLOUDY    61  61 100 E6G17     30.08F VSB 1/2
JOHNS ISLAND   RAIN      63  63 100 NE6       30.11R VSB 1
PINOPOLIS        N/A     61  57  88 E5G20     30.07R
MONCKS CORNER  RAIN      61  61 100 E5        30.10R
SUMMERVILLE    RAIN      61  61 100 E6        30.07F
BEAUFORT MCAS  LGT RAIN  62  60  93 E13       30.06S
BEAUFORT ARPT  CLOUDY    61  61 100 E6G18     30.05F FOG
HILTON HEAD IS HVY RAIN  61  61 100 NE8       30.06F
WALTERBORO     DRIZZLE   61 N/A N/A E13       30.05F
ALLENDALE      DRIZZLE   61  59  94 E5        30.05S

...SOUTHERN MIDLANDS AND PEE DEE...

CITY           SKY/WX    TMP DP  RH WIND       PRES   REMARKS
GEORGETOWN     NOT AVBL
KINGSTREE      NOT AVBL
ORANGEBURG     LGT RAIN  58  56  93 E3        30.08F FOG
BARNWELL       RAIN      57  57 100 CALM      30.09R
AIKEN          LGT RAIN  54  54 100 E8        30.09F
MANNING        NOT AVBL
COLUMBIA       HVY RAIN  55  53  93 N5        30.10S FOG
SUMTER         LGT RAIN  55  55 100 E7        30.10S
FLORENCE       LGT RAIN  59  56  89 E15       30.11F
MYRTLE BEACH   LGT RAIN  61  55  82 E17       30.14F FOG
N MYRTLE BEACH LGT RAIN  60  57  89 E13       30.15F FOG

$$

GAZ063-065-086>088-099>101-113>116-118-119-134>141-150-231700-
...SOUTHEAST GEORGIA...

CITY           SKY/WX    TMP DP  RH WIND       PRES   REMARKS
SAVANNAH ARPT  RAIN      65  62  90 E10       30.04F VSB 1
HUNTER AAF     LGT RAIN  63  63 100 E10       30.01F FOG
FORT STEWART   LGT RAIN  66  64  94 SE8       30.00F
STATESBORO     NOT AVBL
SYLVANIA       DRIZZLE   61  60  97 E7        30.04F
CLAXTON        RAIN      63  63 100 E6        30.02F

...CSRA...CENTRAL AND FAR SOUTHEAST GEORGIA...

CITY           SKY/WX    TMP DP  RH WIND       PRES   REMARKS
THOMSON        CLOUDY    58  58 100 E12       30.07F
AUGUSTA-BUSH   LGT RAIN  57  55  93 E6        30.05F FOG
AUGUSTA-DANIEL LGT RAIN  57  55  93 E12       30.05F FOG
SWAINSBORO     LGT RAIN  63  63 100 E12G20    30.01F
VIDALIA        RAIN      61  61 100 E8        30.00F
HAZLEHURST     DRIZZLE   64  64 100 E7        29.98F
ALMA           CLOUDY    66  65  96 E5        29.98F FOG
WAYCROSS       CLOUDY    74  73  96 S7        29.98F
JESUP          CLOUDY    70  70 100 SE3       30.00F FOG
BAXLEY         DRIZZLE   66  64  94 E3        29.99F
BRUNSWICK      CLOUDY    68  66  94 E3        30.01F
SAINT SIMONS   FOG       66  66 100 E3        30.01F VSB 1/2

$$

SCZ027-028-034-036>038-045-046-048>050-GAZ119-141-231700-
...LAKE AND SUPPLEMENTAL COASTAL OBSERVATIONS...

STATION/POSITION TIME  TEMP    WIND        PRES    WAVE   SWELL
                       AIR SEA DIR/SP/G            HT/PER HT/PER/DIR
                 (UTC) (F)     (DEG/KT/KT) (MB)    (FT/S) (FT/S/D)
UPR LAKE MARION  NOT AVBL
WINYAH BAY       1500   59      60/ 16     1021.0F
LAKE MURRAY      1500   53      CALM  /  4 1020.0R
ACE BASIN NERRS  1500   59      70/  4     1019.0S
FORT PULASKI     1600   60      50/ 13/ 17 1017.3F
SAPELO ISLAND    NOT AVBL

$$

ANZ835-935-AMZ111-154-330-350-352-354-370-450-454-472-231700-
...C-MAN AND BUOY OBSERVATIONS...

STATION/POSITION TIME  TEMP    WIND        PRES    WAVE   SWELL
                       AIR SEA DIR/SP/G            HT/PER HT/PER/DIR
                 (UTC) (F)     (DEG/KT/KT) (MB)    (FT/S) (FT/S/D)
FOLLY BEACH CMAN 1500   60      70/ 18/ 21 1019.7F
BUOY 41004       1600   69 75  100/ 21/ 25 1018.4R   9/ 7   2/15
BUOY 41008       1600   68 64  140/  6/  8 1016.4F   7/ 8   7/110/ 8
CAPERS NEARSHORE 1500   59      70/ 17/ 21   N/A
FRIPP NEARSHORE  NOT AVBL


STATION/POSITION TIME  TEMP    WIND        PRES    WAVE   SWELL
                       AIR SEA DIR/SP/G            HT/PER HT/PER/DIR
                 (UTC) (F)     (DEG/KT/KT) (MB)    (FT/S) (FT/S/D)
5E ST. MARYS GA  1600      62                N/A     6/ 8   2/120/11
FRYING PAN BUOY  1600   66 67  120/ 16/ 17 1022.3F   4/ 6   2/130/ 8
BUOY 41025       1600   70     160/ 12/ 14 1024.8F   3/ 9   2/100/ 9
CAPE LOOKOUT NC  1500   63     150/ 11/ 11 1024.2S
BUOY 41002       1543   72 73  140/ 16/ 19 1024.4F   5/ 5   2/ 90/ 8
BUOY 41010       1600   77 78  150/ 23/ 29 1017.3R  11/ 9
ST AUGUSTINE FL  1600   69     160/ 10/ 11 1016.2F


$$


USA.gov is the U.S. government's official web portal to all federal, state and local government web resources and services.